Hourly Data Report for October 03, 2017

All times are specified in Local Standard Time (LST). Add 1 hour to adjust for Daylight Saving Time where and when it is observed.

ESQUIMALT HARBOUR
BRITISH COLUMBIA

48°25'55.100" N
123°26'21.600" W
3.00 m
1012710
71798
WPF

Download Data

Hourly Data (October 2017)
Hourly Data Report for October 3, 2017
Temp Definition
°C
Dew Point Temp Definition
°C
Rel Hum Definition
%
Wind Dir Definition
10's deg

Wind Spd Definition
km/h
Visibility Definition
km
Stn Press Definition
kPa
Hmdx Definition


Wind Chill Definition


Weather Definition


TIME
00:00 9.1 4.7 74 2 6   102.46     LegendNANA
01:00 9.6 4.9 72 1 5   102.48     LegendNANA
02:00 9.9 5.2 73 35 7   102.50     LegendNANA
03:00 9.2 5.4 77 1 5   102.52     LegendNANA
04:00 8.6 4.6 76 36 10   102.52     LegendNANA
05:00 9.2 3.9 70 1 9   102.55     LegendNANA
06:00 9.4 4.4 71 1 12   102.57     LegendNANA
07:00 9.7 3.4 65 1 11   102.56     LegendNANA
08:00 12.4 4.0 57 36 10   102.61     LegendNANA
09:00 14.4 5.0 53 2 17   102.63     LegendNANA
10:00 15.3 1.9 41 4 14   102.64     LegendNANA
11:00 15.7 1.2 38 3 16   102.63     LegendNANA
12:00 12.0 7.5 74 19 10   102.58     LegendNANA
13:00 12.2 7.7 74 20 7   102.52     LegendNANA
14:00 12.8 6.4 65 19 7   102.43     LegendNANA
15:00 17.7 0.3 31 2 16   102.35     LegendNANA
16:00 17.7 0.3 31 3 13   102.31     LegendNANA
17:00 13.2 6.4 64 20 9   102.31     LegendNANA
18:00 13.4 6.2 62 20 5   102.28     LegendNANA
19:00 11.7 6.9 72   0   102.28     LegendNANA
20:00 11.3 6.9 75 36 5   102.29     LegendNANA
21:00 10.7 4.8 67 36 8   102.27     LegendNANA
22:00 10.0 4.4 68 1 9   102.26     LegendNANA
23:00 9.2 4.0 70 3 9   102.25     LegendNANA

Notes on Data Quality.

Legend

  • E = Estimated
  • M = Missing
  • NA = Not Available
  • ‡ = Partner data that is not subject to review by the National Climate Archives
Date modified: